Location: Oberwangen
(47.4286°N, 8.9679°E)
Time: 09:07:23
(UTC+00:00)

Cosmos 1447 Rocket - Pass Details

Date: 29 October 2021
Orbit: 953 x 996 km, 82.9° (Epoch: 27 November)

Event Time Altitude Azimuth Distance (km) Brightness Sun altitude
Rises 17:24:40 0° 352° (N) 3,643 7.5 -12.9°
Reaches altitude 10° 17:27:11 10° 354° (N) 2,693 6.8 -13.3°
Maximum altitude 17:33:20 75° 80° (E) 992 4.4 -14.3°
Drops below altitude 10° 17:39:29 10° 166° (SSE) 2,687 6.7 -15.4°
Sets 17:41:59 0° 168° (SSE) 3,634 7.4 -15.8°
